Location: Lake Almanor
(40.2485°N, 121.1442°W)
Time: 16:43:04
(UTC-08:00)

STARLINK-1081 - Pass Details

Date: 03 February 2020
Orbit: 348 x 351 km, 53.0° (Epoch: 17 February)

Event Time Altitude Azimuth Distance (km) Brightness Sun altitude
Rises 17:44:32 0° 308° (NW) 2,173 7.2 -4.3°
Reaches altitude 10° 17:46:33 10° 306° (NW) 1,327 6.1 -4.7°
Maximum altitude 17:49:30 75° 221° (SW) 371 2.9 -5.2°
Drops below altitude 10° 17:52:26 10° 136° (SE) 1,322 5.3 -5.7°
Sets 17:54:27 0° 134° (SE) 2,163 6.4 -6.1°
